1310602645831,45.9273
1310602705831,45.8118
1310602765831,45.7704
1310602825831,45.8195
1310602885832,45.8549
1310602945832,45.8142
1310603005832,45.9359
1310603065832,45.8582
1310603125831,45.9252
1310603185831,45.7763
1310603245831,45.8626
1310603305831,45.7679
1310603365831,45.8777
1310603425831,45.8508
1310603485831,45.7463
1310603545831,45.8188
1310603605831,45.8105
1310603665831,45.7578
1310603725831,45.9043
1310603785831,45.9540
1310603845831,45.9475
1310603905831,45.9067
1310603965831,45.9165
1310604025831,45.9622
1310604085831,45.7347
1310604145831,45.8735
1310604205831,45.9066
1310604265832,45.9550
1310604325832,45.9327
1310604385832,45.9052
1310604445831,45.8520
1310604505831,46.0130
1310604565831,46.0561
1310604625831,45.8525
1310604925831,45.9466
1310604985831,46.0014
1310605045831,45.8008
1310605105831,45.8779
1310605165831,45.9983
1310605225841,46.0982
1310605285841,46.0246
1310605345841,45.9805
1310605405841,45.9327
1310605465841,46.0099
1310605525841,45.8667
1310605585841,46.0026
1310605645841,46.0118
1310605705841,46.0087
1310605765841,45.9160
1310605825841,45.9755
1310605885841,45.9189
1310605945841,45.9599
1310606005841,46.0208
1310606065841,46.0852
1310606125841,45.9780
1310606185841,45.8758
1310606245841,45.9341
1310606305841,46.0504
1310606365841,45.8916
1310606425841,46.0987
1310606485841,45.9679
1310606545841,46.0619
1310606605841,45.9175
1310606665841,45.9908
1310606725841,46.0291
1310606785841,45.9731
1310606845841,45.9497
1310606905841,45.9043
1310606965841,45.9303
1310607025841,45.9592
1310607085841,45.8981
1310607145841,45.8232
1310607205841,45.9767
1310607265841,45.8894
1310607325841,46.0103
1310607385841,45.9631
1310607445841,46.0372
1310607505841,46.0098
1310607565841,45.9236
1310607625841,45.8519
1310607685841,45.9624
1310607745841,45.9918
1310607805841,45.9641
1310607865841,46.0184
1310607925841,45.9537
1310607985841,46.0134
1310608045841,45.9360
1310608105841,45.9465
1310608165841,45.8552
1310608225841,45.9383
1310608285841,45.9487
1310608345841,45.9874
1310608405841,45.8813
1310608465841,45.9523
1310608525841,45.8332
1310608585841,45.7935
1310608645841,45.9591
1310608705841,45.9126
1310608765841,45.9777
1310608825851,45.9675
1310608885851,45.9636
1310608945851,45.9836
1310609005851,45.9448
1310609065851,46.0104
1310609125851,45.8941
1310609185851,45.9594
1310609245851,45.8290
1310609305851,46.0614
1310609365851,46.0550
1310609425851,45.9622
1310609485851,45.9612
1310609545851,45.9821
1310609605851,45.9579
1310609665851,45.9741
1310609725851,45.9178
1310609785851,45.9817
1310609845851,45.9713
1310609905851,46.0086
1310609965851,46.1156
1310610025851,45.9877
1310610085851,45.9727
1310610145851,46.0706
1310610265851,46.1007
1310610325851,46.0734
1310610385851,45.9609
1310610445851,46.0922
1310610505851,46.0887
1310610565851,46.1747
1310610625851,46.0829
1310610685851,46.0625
1310610745851,45.9997
1310610805851,46.0747
1310610865851,46.1389
1310610925851,46.1169
1310610985851,46.0469
1310611045851,45.9585
1310611105851,46.0141
1310611165851,45.9479
1310611225851,45.9944
1310611285851,46.1400
1310611345851,46.0778
1310611405851,46.0070
1310611465851,46.0308
1310611525851,45.9317
1310611585851,45.9991
1310611645851,46.0539
1310611705851,45.8349
1310611765851,46.0758
1310611825851,45.9615
1310611885851,45.9356
1310611945851,45.8983
1310612005851,46.0065
1310612065851,45.9841
1310612125851,45.9257
1310612185851,45.9870
1310612245851,45.8922
1310612305851,45.9205
1310612365851,45.8619
1310612425860,46.0062
1310612485860,45.8573
1310612545860,45.8287
1310612605861,45.9283
1310612665861,45.8516
1310612725860,45.9888
1310612785860,45.7863
1310612845860,45.7729
1310612905861,45.9088
1310612965861,45.8261
1310613025861,45.8598
1310613085861,45.8288
1310613145861,45.9455
1310613205861,45.7737
1310613265861,45.8304
1310613325861,45.7365
1310613385860,45.8969
1310613445860,45.8317
1310613505860,45.8925
1310613565860,45.9877
1310613625860,45.8383
1310613685860,45.7459
1310613745860,45.8441
1310613805860,45.8246
1310613865860,45.8807
1310613925861,45.9774
1310613985861,45.7933
1310614045860,45.9589
1310614105860,45.8321
1310614165860,45.8107
1310614225860,45.7935
1310614285861,45.6948
1310614345861,45.9213
1310614405861,46.0271
1310614465861,45.8188
1310614525861,45.8403
1310614585861,45.9032
1310614645861,45.8847
1310614705860,46.0402
1310614765860,46.0194
1310614825860,45.9391
1310614885860,45.9547
1310614945860,45.8458
1310615005860,45.7717
1310615065860,45.8867
1310615125860,45.9779
1310615185860,45.7958
1310615245860,45.9450
1310615305861,45.8576
1310615365861,46.1076
1310615425860,45.9206
1310615485860,45.8592
1310615545860,45.9883
1310615605861,46.0915
1310615665861,45.7920
1310615725861,46.0604
1310615785861,45.9725
1310615845861,45.7706
1310615905861,46.0170
1310615965861,45.9377
1310616025870,45.9228
1310616085870,45.9048
1310616145870,45.9115
1310616205870,45.9683
1310616265870,46.0319
1310616325870,46.0675
1310616385870,46.0540
1310616445870,46.0041
1310616505870,46.0576
1310616565870,45.8775
1310616625870,45.9825
1310616685870,46.0311
1310616745870,46.0144
1310616805870,45.9137
1310616865870,46.2078
1310616925870,46.2077
1310616985870,46.0322
1310617045870,46.0782
1310617105870,46.0204
1310617165870,46.1625
1310617225870,46.0739
1310617285870,46.0801
1310617345870,45.9947
1310617405870,46.1522
1310617465870,46.1368
1310617525870,46.1688
1310617585870,46.2421
1310617645870,46.2293
1310617705870,46.2081
1310617765870,46.1238
1310617825870,46.0594
1310617885870,46.0170
1310617945870,46.0211
1310618005870,46.2598
1310618065870,46.1231
1310618125870,46.1513
1310618185870,46.2357
1310618245870,46.2031
1310618305870,46.2671
1310618365870,46.1964
1310618425870,46.3220
1310618485870,46.2269
1310618545870,46.1139
1310618605870,46.1511
1310618665870,46.2479
1310618725870,46.2451
1310618785870,46.2605
1310618845870,46.2059
1310618905870,46.3256
1310618965870,46.2215
1310619025870,46.3220
1310619085870,46.2675
1310619145870,46.4692
1310619205870,46.3470
1310619265870,46.3514
1310619325870,46.4819
1310619385870,46.3991
1310619445870,46.4179
1310619505870,46.3265
1310619565870,46.4535
1310619625879,46.3802
1310619685879,46.5430
1310619745879,46.5535
1310619805879,46.5173
1310619865879,46.6193
1310619925879,46.4441
1310619985879,46.4700
1310620045879,46.5365
1310620105879,46.5118
1310620165879,46.5474
1310620225879,46.6906
1310620285879,46.5284
1310620345879,46.6405
1310620405879,46.6654
1310620465879,46.5028
1310620525879,46.6274
1310620585879,46.4905
1310620645879,46.5130
1310620705879,46.5108
1310620765879,46.6964
1310620825879,46.6108
1310620885879,46.6278
1310620945879,46.6463
1310621005879,46.5104
1310621065879,46.5982
1310621125879,46.6273
1310621185879,46.7116
1310621245879,46.6858
1310621305879,46.6272
1310621365879,46.7789
1310621425879,46.6392
1310621485879,46.7146
1310621545879,46.6611
1310621605879,46.6056
1310621665879,46.6481
1310621725879,46.8145
1310621785879,46.6912
1310621845879,46.6450
1310621905879,46.6829
1310621965879,46.7080
1310622025879,46.6768
1310622085879,46.6763
1310622145879,46.6653
1310622205879,46.5653
1310622265879,46.7283
1310622325879,46.5189
1310622385879,46.7085
1310622445879,46.7601
1310622505879,46.5310
1310622565879,46.6491
1310622625879,46.7733
1310622685879,46.6860
1310622745879,46.6423
1310622805879,46.8151
1310622865879,46.9469
1310622925879,46.8274
1310622985879,46.7001
1310623045879,46.8995
1310623105879,46.7454
1310623165879,46.6758
1310623225888,46.8123
1310623285888,46.8183
1310623345888,46.8737
1310623405888,46.8941
1310623465888,47.0473
1310623525888,46.9997
1310623585888,46.9241
1310623645888,46.8615
1310623705888,46.9045
1310623765888,46.8137
1310623825888,46.8064
1310623885888,46.7661
1310623945888,46.7422
1310624005888,46.8464
1310624065888,46.8225
1310624125888,46.9218
1310624185888,46.9120
1310624245888,47.3080
1310624305888,46.6917
1310624365888,46.7803
1310624425888,46.8452
1310624485888,46.8732
1310624545888,46.9754
1310624605888,46.8243
1310624665888,46.7652
1310624725888,46.9134
1310624785888,46.8544
1310624845888,46.6899
1310624905888,46.8648
1310624965888,46.9223
1310625025888,46.7858
1310625085888,46.9580
1310625145888,46.8751
1310625205888,46.7617
1310625265888,46.8478
1310625325888,46.8273
1310625385888,46.8064
1310625445888,46.8450
1310625505888,46.8006
1310625565888,46.7729
1310625625888,46.8184
1310625685888,46.7093
1310625745888,46.8774
1310625805888,46.7835
1310625865888,46.8491
1310625925888,46.7597
1310625985888,46.8177
1310626045888,46.7639
1310626105888,46.6839
1310626165888,46.8395
1310626225888,46.7126
1310626285888,46.7655
1310626345888,46.7146
1310626405888,46.8297
1310626465888,46.7590
1310626525888,46.8327
1310626585888,46.6703
1310626645888,46.7046
1310626705888,46.6142
1310626765888,46.7027
1310626825897,46.6577
1310626885897,46.6323
1310626945897,46.6056
1310627005897,46.6733
1310627065897,46.6674
1310627125897,46.6252
1310627185897,46.5847
1310627245897,46.7944
1310627305897,46.6404
1310627365897,46.5336
1310627425897,46.6570
1310627485897,46.4468
1310628025897,46.6125
1310628085897,43.4504
1310628145897,46.4978
1310628205897,46.4582
1310628265897,46.4940
1310628325897,46.4239
1310628385897,46.4564
1310628445897,46.4192
1310628505897,46.5035
1310628565897,46.6470
1310628625897,46.4494
1310628685897,46.4103
1310628745897,46.3307
1310628805897,46.3644
1310628865897,46.4577
1310628925897,46.3302
1310628985897,46.4801
1310629045897,46.3244
1310629105897,46.5237
1310629165897,46.2917
1310629225897,46.3978
1310629285897,46.3078
1310629345897,46.3526
1310629405897,46.4057
1310629465897,46.4274
1310629525897,46.3037
1310629585897,46.2846
1310629645897,46.3238
1310629705897,46.2953
1310629765897,46.3840
1310629825897,46.3997
1310629885897,46.3886
1310629945897,46.2742
1310630005897,46.4527
1310630065897,46.3636
1310630125897,46.4479
1310630185897,46.4401
1310630245897,46.3278
1310630305897,46.3998
1310630365897,46.4315
1310630425906,46.5402
1310630485906,46.4539
1310630545906,46.3539
1310630605906,46.4250
1310630665906,46.3612
1310630725906,46.2871
1310630785906,46.3745
1310630845906,46.4755
1310630905906,46.4585
1310630965906,46.4200
1310631025906,46.4665
1310631085906,46.3769
1310631145906,46.3704
1310631205906,46.4088
1310631265906,46.5000
1310631325906,46.3352
1310631385906,46.4493
1310631445906,46.4162
1310631505906,46.4566
1310631565906,46.3323
1310631625906,46.3566
1310631685906,46.2625
1310631745906,46.4220
1310631805906,46.3557
1310631865906,46.2341
1310631925906,46.4211
1310631985906,46.3483
1310632045906,46.2934
1310632105906,46.3819
1310632165906,46.1938
1310632225906,46.3963
1310632285906,46.4162
1310632345906,46.1666
1310632405906,46.2749
1310632465906,46.2352
1310632525906,46.2197
1310632585906,46.3066
1310632645906,46.2029
1310632705906,46.2337
1310632765906,46.2672
1310632825906,46.2900
1310632885906,46.2745
1310632945906,46.2937
1310633005906,46.2847
1310633065906,46.2635
1310633125906,46.2796
1310633185906,46.2738
1310633245906,46.2827
1310633305906,46.2105
1310633365906,46.2469
1310633425906,46.1717
1310633485906,46.2765
1310633545906,46.1595
1310633605906,46.1417
1310633665906,46.2482
1310633725906,46.2487
1310633785906,46.1753
1310633845906,46.0942
1310633905906,46.2126
1310633965906,46.2637
1310634025915,46.2346
1310634085915,46.2265
1310634145915,46.1878
1310634205915,46.2882
1310634265915,46.1583
1310634325915,46.1130
1310634385915,46.2941
1310634445915,46.0710
1310634505915,46.1701
1310634565915,46.2050
1310634625915,46.1374
1310634685915,46.2147
1310634745915,46.3271
1310634805915,46.2519
1310634865915,46.2386
1310634925915,46.1777
1310634985915,46.0945
1310635045915,46.1956
1310635105915,46.2215
1310635165915,46.2024
1310635225915,46.2033
1310635285915,46.2086
1310635345915,46.1767
1310635405915,46.0434
1310635465915,46.1480
1310635525915,46.2008
1310635585915,46.0536
1310635645915,46.1794
1310635705915,46.1600
1310635765915,46.1403
1310635825915,46.0580
1310635885915,46.1938
1310635945915,46.0800
1310636005915,46.0751
1310636065915,46.0189
1310636125915,46.1026
1310636185915,46.1546
1310636245915,46.0601
1310636305915,45.9883
1310636365915,46.1334
1310636425915,46.0374
1310636485915,46.0632
1310636545915,46.0996
1310636605915,46.1455
1310636665915,46.0221
1310636725915,46.0095
1310636785915,46.1062
1310636845915,46.0941
1310636905915,46.1820
1310636965915,46.0803
1310637025915,46.0824
1310637085915,46.1120
1310637145915,46.0111
1310637205915,46.1607
1310637265915,46.2093
1310637325915,46.2170
1310637385915,46.1050
1310637445915,46.0802
1310637505915,46.1604
1310637565915,46.1432
1310637625924,46.0523
1310637685924,46.0810
1310637745924,46.1286
1310637805924,46.0019
1310637865924,45.9979
1310637925924,46.1424
1310637985924,45.9973
1310638045924,46.1083
1310638105924,46.0204
1310638165924,46.0354
1310638225924,45.8502
1310638285924,45.9111
1310638345924,45.9931
1310638405924,46.0050
1310638465924,45.9926
1310638525924,45.9595
1310638585924,46.1021
1310638645924,45.8437
1310638705924,46.0173
1310638765924,45.9141
1310638825924,45.9538
1310638885924,45.8471
1310638945924,45.9031
1310639005924,45.9288
1310639065924,45.8628
1310639125924,45.9382
1310639185924,45.9656
1310639245924,45.9789
1310639305924,45.9734
1310639365924,46.0130
1310639425924,46.1173
1310639485924,45.8659
1310639545924,46.1174
1310639605924,45.9982
1310639665924,45.8651
1310639725924,46.0391
1310639785924,46.0029
1310639845924,45.9479
1310639905924,45.9776
1310639965924,46.1812
1310640025924,46.1351
1310640085924,46.0698
1310640145924,46.1084
1310640205924,46.0827
1310640265924,46.1750
1310640325924,46.0053
1310640385924,46.0506
1310640445924,46.1471
1310640505924,46.0251
1310640565924,45.9859
1310640625924,46.1174
1310640685924,46.0226
1310640745924,46.0321
1310640805924,46.1821
1310640865924,46.0465
1310640925924,45.8500
1310640985924,46.0177
1310641045924,45.9761
1310641105924,45.9447
1310641165924,45.9988
1310641225933,45.9011
1310641285933,45.9571
1310641345933,46.0504
1310641405933,45.9989
1310641465933,46.0108
1310641525933,45.8923
1310641585933,46.1392
1310641645933,46.0135
1310641705933,46.0967
1310641765933,46.0173
1310641825933,45.9804
1310641885933,46.2119
1310641945933,45.9298
1310642005933,46.1805
1310642065933,46.0801
1310642125933,46.0628
1310642185933,46.1052
1310642245933,46.1110
1310642305933,46.3494
1310642365933,46.0012
1310642425933,46.0405
1310642485933,46.1007
1310642545933,46.0507
1310642605933,46.0504
1310642665933,46.0233
1310642725933,46.0961
1310642785933,46.1863
1310642845933,46.0615
1310642905933,46.0927
1310642965933,46.1695
1310643025933,46.0726
1310643085933,45.9904
1310643145933,46.1109
1310643205933,46.0997
1310643265933,46.0183
1310643325933,46.1847
1310643385933,46.0733
1310643445933,46.0184
1310643505933,46.1042
1310643565933,46.1680
1310643625933,46.2635
1310643685933,46.1059
1310643745933,46.0083
1310643805933,46.2004
1310643865933,46.1014
1310643925933,46.0796
1310643985933,46.0499
1310644045933,46.1053
1310644105933,46.0837
1310644165933,46.0531
1310644225933,46.1812
1310644285933,46.1108
1310644345933,46.0955
1310644405933,46.2369
1310644465933,46.1254
1310644525933,46.0683
1310644585933,45.9852
1310644645933,46.1646
1310644705933,46.0155
1310644765933,45.9907
1310644825942,45.9595
1310644885942,45.9542
1310644945942,46.1298
1310645005942,46.0975
1310645065942,46.0807
1310645125942,46.0508
1310645185942,46.0871
1310645245942,46.0927
1310645305942,46.0755
1310645365942,46.1776
1310645425942,46.0669
1310645485942,46.0683
1310645545942,46.1623
1310645605942,46.1942
1310645665942,46.2043
1310645725942,46.0921
1310645785942,46.1496
1310645845942,46.0208
1310645905942,46.2375
1310645965942,46.1948
1310646025942,46.2659
1310646085942,46.3471
1310646145942,46.2090
1310646205942,46.2880
1310646265942,46.2766
1310646325942,46.2430
1310646385942,46.2599
1310646445942,46.3478
1310646505942,46.3433
1310646565942,46.2994
1310646625942,46.4240
1310646685942,46.2862
1310646745942,46.2589
1310646805942,46.3327
1310646865942,46.2392
1310646925942,46.3969
1310646985942,46.3574
1310647045942,46.4562
1310647105942,46.4696
1310647165942,46.3470
1310647225942,46.3641
1310647285942,46.2890
1310647345942,46.3655
1310647405942,46.3233
1310647465942,46.4273
1310647525942,46.2518
1310647585942,46.3268
1310647645942,46.3304
1310647705942,46.3487
1310647765942,46.3276
1310647825942,46.3934
1310647885942,46.3859
1310647945942,46.4050
1310648005942,46.4638
1310648065942,46.3746
1310648125942,46.3751
1310648185942,46.3951
1310648245942,46.4724
1310648305942,46.3870
1310648365942,46.3441
1310648425951,46.5106
1310648485951,46.4146
1310648545951,46.3331
1310648605951,46.2799
1310648665951,46.4926
1310648725951,46.4026
1310648785951,46.4020
1310648845951,46.5161
1310648905951,46.4158
1310648965951,46.5047
1310649025951,46.4442
1310649085951,46.5859
1310649145951,46.6027
1310649205951,46.6215
1310649265951,46.5647
1310649325951,46.6575
1310649385951,46.5362
1310649445951,46.6147
1310649505951,46.6568
1310649565951,46.6044
1310649625951,46.6914
1310649685951,46.7932
1310649745951,46.6899
1310649805951,46.8544
1310649865951,46.5984
1310649925951,46.6847
1310649985951,46.6454
1310650045951,46.5080
1310650105951,46.5803
1310650165951,46.6560
1310650225951,46.6279
1310650285951,46.5478
1310650345951,46.5275
1310650405951,46.6659
1310650465951,46.6344
1310650525951,46.6180
1310650585951,46.5377
1310650645951,46.6310
1310650705951,46.6800
1310650765951,46.4850
1310650825951,46.3713
1310650885951,46.4645
1310650945951,46.6060
1310651005951,46.4920
1310651065951,46.4680
1310651125951,46.5677
1310651185951,46.4682
1310651245951,46.4257
1310651305951,46.5142
1310651365951,46.4417
1310651425951,46.4334
1310651485951,46.6084
1310651545951,46.5185
1310651605951,46.5326
1310651665951,46.5033
1310651725951,46.4956
1310651785951,46.5850
1310651845951,46.4533
1310651905951,46.5668
1310651965951,46.5675
1310652025960,46.4270
1310652085960,46.5497
1310652145960,46.4170
1310652205960,46.5137
1310652265960,46.4744
1310652325960,46.4641
1310652385960,46.5420
1310652445960,46.4472
1310652505960,46.6074
1310652565960,46.5273
1310652625960,46.5858
1310652685960,46.5889
1310652745960,46.5435
1310652805960,46.4038
1310652865960,46.5243
1310652925960,46.6094
1310652985960,46.5026
1310653045960,46.5410
1310653105960,46.5902
1310653165960,46.5740
1310653225960,46.6287
1310653285960,46.5516
1310653345960,46.6191
1310653405960,46.7564
1310653465960,46.6077
1310653525960,46.5369
1310653585960,46.4471
1310653645960,46.5506
1310653705960,46.5732
1310653765960,46.5332
1310653825960,46.5429
1310653885960,46.6396
1310653945960,46.6484
1310654005960,46.6233
1310654065960,46.5907
1310654125960,46.4135
1310654185960,46.5127
1310654245960,46.5324
1310654305960,46.4496
1310654365960,46.5666
1310654425960,46.5704
1310654485960,46.4936
1310654545960,46.5309
1310654605960,46.5644
1310654665960,46.5629
1310654725960,46.5848
1310654785960,46.3519
1310654845960,46.5080
1310654905960,46.5580
1310654965960,46.4370
1310655025960,46.3824
1310655085960,46.5715
1310655145960,46.4660
1310655205960,46.5077
1310655265960,46.3691
1310655325960,46.3504
1310655385960,46.4156
1310655445960,46.3380
1310655505960,46.3435
1310655565960,46.3182
1310655625969,46.1001
1310655685969,46.4183
1310655745969,46.3626
1310655805969,46.3161
1310655865969,46.2143
1310655925969,46.2635
1310655985969,46.2314
1310656045969,46.1936
1310656105969,46.1516
1310656165969,46.2623
1310656225969,46.3401
1310656285969,46.1998
1310656345969,46.2755
1310656405969,46.1646
1310656465969,46.2761
1310656525969,46.2562
1310656585969,46.2307
1310656645969,46.1236
1310656705969,46.2050
1310656765969,46.2268
1310656825969,46.1729
1310656885969,46.0532
1310656945969,46.1705
1310657005969,46.1788
1310657065969,46.2612
1310657125969,46.1101
1310657185969,46.2023
1310657245969,46.1684
1310657305969,46.1694
1310657365969,46.2254
1310657425969,46.1447
1310657485969,46.2455
1310657545969,46.1838
1310657605969,46.1506
1310657665969,46.1759
1310657725969,46.1346
1310657785969,46.1545
1310657845969,46.1779
1310657905969,46.2319
1310657965969,46.3790
1310658025969,46.2919
1310658085969,46.1650
1310658145969,46.1780
1310658205969,46.2186
1310658265969,46.2308
1310658325969,46.2781
1310658385969,46.2144
1310658445969,46.3012
1310658505969,46.2710
1310658565969,46.1909
1310658625969,46.1558
1310658685969,46.1760
1310658745969,46.1981
1310658805969,46.1687
1310658865969,46.2024
1310658925969,46.1132
1310658985969,46.2894
1310659045969,46.1352
1310659105969,46.1643
1310659165969,46.1109
1310659225979,46.1566
1310659285979,46.2778
1310659345979,46.1349
1310659405979,46.2008
1310659465979,46.2078
1310659525979,46.1315
1310659585979,46.2958
1310659645979,46.0598
1310659705979,46.2388
1310659765979,46.2398
1310659825979,46.3198
1310659885979,46.1295
1310659945979,46.2953
1310660005979,46.1094
1310660065979,46.2438
1310660125979,46.2557
1310660185979,46.1606
1310660245979,46.2946
1310660305979,46.2800
1310660365979,46.2569
1310660425979,46.3286
1310660485979,46.2220
1310660545979,46.3047
1310660605979,46.2210
1310660665979,46.3246
1310660725979,46.3091
1310660785979,46.2060
1310660845979,46.3107
1310660905979,46.4029
1310660965979,46.2552
1310661025979,46.3480
1310661085979,46.5227
1310661145979,46.2752
1310661205979,46.1709
1310661265979,46.5238
1310661325979,46.4563
1310661385979,46.4311
1310661445979,46.4479
1310661505979,46.5502
1310661565979,46.4960
1310661625979,46.4197
1310661685979,46.3581
1310661745979,46.5807
1310661805979,46.4465
1310661865979,46.4077
1310661925979,46.6172
1310661985979,46.5104
1310662045979,46.4302
1310662105979,46.4923
1310662165979,46.4750
1310662225979,46.4164
1310662285979,46.5429
1310662345979,46.5948
1310662405979,46.3756
1310662465979,46.3765
1310662525979,46.4645
1310662585979,46.5336
1310662645979,46.4988
1310662705979,46.5993
1310662765979,46.5458
1310662825989,46.5016
1310662885989,46.5282
1310662945989,46.5261
1310663005989,46.4615
1310663065989,46.4781
1310663125989,46.5969
1310663185989,46.3987
1310663245989,46.5759
1310663305989,46.4782
1310663365989,46.4963
1310663425989,46.4795
1310663485989,46.3836
1310663545989,46.5489
1310663605989,46.4185
1310663665989,46.6837
1310663725989,46.4161
1310663785989,46.5480
1310663845989,46.4689
1310663905989,46.5191
1310663965989,46.5989
1310664025989,46.5227
1310664085989,46.6866
1310664145989,46.4916
1310664205989,46.5135
1310664265989,46.5110
1310664325989,46.4744
1310664385989,46.4769
1310664445989,46.5093
1310664505989,46.3829
1310664565989,46.5579
1310664625989,46.4482
1310664685989,46.5676
1310664745989,46.4854
1310664805989,46.4825
1310664865989,46.3538
1310664925989,46.5655
1310664985989,46.5730
1310665045989,46.5484
1310665105989,46.5176
1310665165989,46.5106
1310665225989,46.4998
1310665285989,46.4649
1310665345989,46.4823
1310665405989,46.5014
1310665465989,46.4327
1310665525989,46.3668
1310665585989,46.3562
1310665645989,46.3749
1310665705989,46.3871
1310665765989,46.2726
1310665825989,46.3677
1310665885989,46.3023
1310665945989,46.4561
1310666005989,46.3479
1310666065989,46.2887
1310666125989,46.2563
1310666185989,46.4105
1310666245989,46.5106
1310666305989,46.4512
1310666365989,46.5552
1310666425999,46.4277
1310666485999,46.4488
1310666545999,46.4581
1310666605999,46.4203
1310666665999,46.4434
1310666725999,46.4202
1310666785999,46.3607
1310666845999,46.5274
1310666905999,46.4155
1310666965999,46.4307
1310667025999,46.4064
1310667085999,46.3473
1310667145999,46.4040
1310667205999,46.3946
1310667265999,46.5414
1310667325999,46.2616
1310667385999,46.2988
1310667445999,46.4613
1310667505999,46.3958
1310667565999,46.3089
1310667625999,46.3656
1310667685999,46.3207
1310667745999,46.3779
1310667805999,46.2954
1310667865999,46.3627
1310667925999,46.3642
1310667985999,46.3749
1310668045999,46.5205
1310668105999,46.3721
1310668165999,46.2144
1310668225999,46.3977
1310668285999,46.3746
1310668345999,46.3706
1310668405999,46.4542
1310668465999,46.4255
1310668525999,46.4263
1310668585999,46.3895
1310668645999,46.3912
1310668705999,46.3477
1310668765999,46.4401